This is the latest recevied weather packets stored in our database for station/object KB9GXK. If no packets are shown the sender has not sent any weather packets the latest 10 day(s).
| Time | Temp. | Humidity | Pressure | Rain* | Wind** | Luminosity | Snow |
|---|---|---|---|---|---|---|---|
| 1778072482 | 8.89° C | 48% | 1013.9 hPa | 0 mm | - | 106 W/m² | - |
| 1778072181 | 9.44° C | 49% | 1013.7 hPa | 0 mm | - | 72 W/m² | - |
| 1778071878 | 8.89° C | 52% | 1013.8 hPa | 0 mm | - | 106 W/m² | - |
| 1778071576 | 8.89° C | 54% | 1013.9 hPa | 0 mm | - | 51 W/m² | - |
| 1778071273 | 8.33° C | 57% | 1014.1 hPa | 0 mm | - | 123 W/m² | - |
| 1778070971 | 7.78° C | 59% | 1013.8 hPa | 0 mm | - | 64 W/m² | - |
| 1778070669 | 7.78° C | 60% | 1013.6 hPa | 0 mm | - | 96 W/m² | - |
| 1778070365 | 7.78° C | 60% | 1013.7 hPa | 0 mm | - | 105 W/m² | - |
| 1778070063 | 7.22° C | 61% | 1013.6 hPa | 0 mm | - | 74 W/m² | - |
| 1778069761 | 7.22° C | 61% | 1013.5 hPa | 0 mm | - | 98 W/m² | - |
| 1778069457 | 7.22° C | 63% | 1013.4 hPa | 0 mm | - | 108 W/m² | - |
| 1778069155 | 6.67° C | 64% | 1013.4 hPa | 0 mm | - | 96 W/m² | - |
| 1778068852 | 6.11° C | 65% | 1013.4 hPa | 0 mm | - | 66 W/m² | - |
| 1778068550 | 6.11° C | 67% | 1013.4 hPa | 0 mm | - | 72 W/m² | - |
| 1778068248 | 5.56° C | 69% | 1013.3 hPa | 0 mm | - | 68 W/m² | - |
| 1778067945 | 5.56° C | 71% | 1013.3 hPa | 0 mm | - | 48 W/m² | - |
| 1778067643 | 5° C | 72% | 1013.4 hPa | 0 mm | - | 51 W/m² | - |
| 1778067341 | 4.44° C | 74% | 1013.4 hPa | 0 mm | - | 44 W/m² | - |
| 1778067038 | 3.89° C | 77% | 1013.3 hPa | 0 mm | - | 38 W/m² | - |
| 1778066734 | 3.33° C | 79% | 1013.4 hPa | 0 mm | - | 31 W/m² | - |
| 1778066432 | 2.78° C | 81% | 1013.2 hPa | 0 mm | - | 26 W/m² | - |
| 1778066130 | 2.22° C | 82% | 1013.3 hPa | 0 mm | - | 21 W/m² | - |
| 1778065827 | 1.67° C | 83% | 1013.2 hPa | 0 mm | - | 17 W/m² | - |
| 1778065525 | 1.67° C | 83% | 1013.1 hPa | 0 mm | - | 13 W/m² | - |
| 1778065222 | 1.67° C | 83% | 1013 hPa | 0 mm | - | 10 W/m² | - |
* Rain latest hour (hover to see other rain measurements)
** Current wind speed in m/s (hover to see current wind gust speed)